Location: Newark
(42.0700°N, 88.0492°W)
Time: 02:47:34
(UTC+00:00)

ISS - Pass Details

Date: 25 September 2019
Orbit: 411 x 421 km, 51.6° (Epoch: 21 October)

Event Time Altitude Azimuth Distance (km) Brightness Sun altitude
Rises 01:29:14 0° 278° (W) 2,341 1.6 -19.7°
Reaches altitude 10° 01:31:43 10° 297° (WNW) 1,480 0.2 -20.1°
Maximum altitude 01:34:13 20° 346° (NNW) 1,036 -1.4 -20.5°
Enters shadow 01:35:26 16° 15° (NNE) 1,157 -1.5 -20.8°
